РПИ Тбилиси*

Грузинский район полетной информации (UGGG, УГГГ) обеспечивает организацию воздушного движения в воздушном пространстве Грузии и над юго-восточной частью акватории Черного моря в сети VATSIM.

В состав РПИ входят три международных аэропорта, один из которых также считается региональным аэропортом Турции (Тбилиси, Батуми и Кутаиси), два региональных (Местия и Амбролаури), а также два аэродрома авиации общего назначения (Телави и Натахтари).

РПИ Тбилиси является частью макрорегиона Кавказ в составе сети VATSIM.

В воздушном пространстве Грузии и Армении по соглашению обеих стран в верхнем воздушном пространстве возможно применение Free-Route при планировании маршрута. На схеме ниже представлены точки на границе воздушного пространства Грузии. Точки на границе с воздушным пространством Армении (отмечены как (I)) обязательно должны быть указаны в плане полета, если полет проходит через оба воздушных пространства по технологии Free-Route.

Tbilisi Radar (UGGG_CTR) sectors

United 125.125

Georgian Free-Route waypoints on the borders of the airspace

Руководство

Grigori Badalov*

Куратор

Gregory Adamov

Помощник куратора по мероприятиям
Инструкторы РПИ
Grigori Badalov (Instructor)
Входит в состав
Кавказ

Диспетчеры РПИ

Диспетчер Рейтинг Допуски *
Anatoly Zhilkin Controller UGGG_CTR
Grigori Badalov Instructor UGGG_CTR
Ivan Chernov Senior Controller UGGG_CTR
Valeriy Polostyanoy Instructor UGGG_CTR

Аэропорты РПИ

ICAO Город Название Погода
UGTB Тбилиси Тбилиси UGTB 240830Z 14005KT 110V170 9999 FEW020 SCT029CB 18/13 Q1018 TEMPO SHRA BKN015CB
UGSB Батуми Батуми UGSB 240830Z 23011KT 200V260 9999 FEW028 21/18 Q1009 NOSIG
UGKO Кутаиси Кутаиси UGKO 240830Z 08028G41KT CAVOK 25/13 Q1007 NOSIG
UGAM Амбролаури Амбролаури UGAM 240830Z 14013G24KT 090V180 9999 SCT060 24/09 Q1012
UGMS Местия Местия UGMS 240830Z 02008KT 320V060 9999 SCT100 20/M03 Q1015
UGSA Натахтари Натахтари
UGGT Телави Телави